DELTA 1 DEB *, 18591

Orbit data source: Space-Track

DELTA 1 DEB *, 18591 is space debris in LEO originally from a launch on Thu, 29 Jul 1976 UTC launched from the Air Force Western Test Range (AFWTR). Debris objects in space refer to the collection of defunct objects orbiting the Earth. Examples of debris include non-operational satellites, rocket bodies, and fragments generated from explosions, collisions, or faulty payload assembly.

Loading next visibility...
Identifier
18591, 1976-077FD
Orbit
LEO
Country
Flag of USUS
Related business
Manufacturer
Unknown
Mission
Spacecraft
Bus & Motor
Unknown
Mass
Unknown
Launch date (UTC)
1976-07-29 (49 years ago)
Launch vehicle
Unknown
Launch site
Air Force Western Test Range (AFWTR)
Object type
Payload
Rocket body
Debris
Shape & HBR
Unknown shape, 1.1 m
Radar Cross Section
Medium (>0.1 m² and <1 m²)

Expand to show TLE details & history
Last TLE update: 16 hours ago

TLE from 16 hours ago
0 DELTA 1 DEB *
1 18591U 76077FD  25343.22324403  .00000541  00000-0  12816-1 0  9997
2 18591 100.9905  72.7132 1066754  71.1130 348.8996 10.60226808571670
Epoch: 2025-12-09T05:21Z
TLE epoch observation values (Epoch: 2025-12-09T05:21:28.284Z)
Latitude
55.80049°
Longitude
-102.38532°
Altitude
1,471.445 km
Speed
7.495 km/s
True Right ascension
03h 44m 46s
True Declination
55° 39' 18"
Sunlit
Object was in full shadow at epoch
Visualization orbit readout
Latitude
Unknown
Longitude
Unknown
Altitude
Unknown
Speed
Unknown
Apparent Right ascension
Unknown
Apparent Declination
Unknown
Sunlit
N/A
Visualization observer readout
Local Sidereal Time
19:07:54
Azimuth
Unknown
Elevation
Unknown
Doppler factor
Unknown
Orbital elements
Apogee altitude
3,305.608 km
Perigee altitude
1,438.724 km
Semi-major axis
8,750.303 km
Eccentricity
0.10668
Inclination
100.9905°
RAAN
72.7132°
Arg. of periapsis
71.113°
True anomaly
346.19534°
Mean anomaly
348.8996°
Eccentric anomaly
347.58563°
Mean motion
2.6516 °/min
Orbital period
135.77 mins
BSTAR
0.012816
Loading maneuver chart data...
Computing Atmospheric mass density...
Loading historical data...
Loading historical data...
Loading historical data...
Loading historical data...
Loading historical data...
Loading historical data...
Loading historical data...

Documentation

Showing up to 5 results
|